Fitzgerald Muni, Fitzgerald,, GA

5:51 PM EDT on September 22, 2017 (GMT -0400)
Fitzgerald Municipal

Weather History for KFZG - December, 2013

Change the Weather History Date:

Friday, December 13, 2013

  Actual Average Record
Temperature  
Mean Temperature 48 °F -  
Max Temperature 64 °F 63 °F 80 °F (2015)
Min Temperature 32 °F 43 °F 30 °F (2014)
Degree Days  
Heating Degree Days 17    
Moisture  
Dew Point 38 °F    
Average Humidity 71    
Maximum Humidity 94    
Minimum Humidity 44    
Precipitation  
Precipitation 0.00 in - - ()
Sea Level Pressure  
Sea Level Pressure 30.31 in    
Wind  
Wind Speed 2 mph (East)    
Max Wind Speed 7 mph    
Max Gust Speed -    
Visibility 10 miles    
Events      
Averages and records for this station are not official NWS values.
T = Trace of Precipitation, MM = Missing Value Source: NWS Daily Summary

Daily Weather History Graph

Daily Weather History Graph

Search for Another Location

Airport or City:

Trip Planner

Search our weather history database for the weather conditions in past years. The results will help you decide how hot, cold, wet, or windy it might be!

Date:

Astronomy

Dec. 13, 2013 Rise Set
Actual Time 7:24 AM EST 5:30 PM EST
Civil Twilight 6:57 AM EST 5:57 PM EST
Nautical Twilight 6:26 AM EST 6:27 PM EST
Astronomical Twilight 5:57 AM EST 6:57 PM EST
Moon 3:04 PM EST (12/13) 3:55 AM EST (12/13)
Length of Visible Light 11h 00m
Length of Day
10h 06m
Waxing Gibbous, 88% of the Moon is Illuminated
Dec 13
Waxing Gibbous
Dec 17
Full
Dec 25
Last Quarter
Jan 1
New
Jan 7
First Quarter

Hourly Weather History & Observations

Time (EST) Temp. Windchill Dew Point Humidity Pressure Visibility Wind Dir Wind Speed Gust Speed Precip Events Conditions
12:15 AM 34.2 °F - 32.2 °F 92% 30.39 in 7.0 mi Calm Calm - N/A   Clear
12:35 AM 34.0 °F - 32.4 °F 94% 30.39 in 7.0 mi Calm Calm - N/A   Clear
12:55 AM 35.4 °F - 32.2 °F 88% 30.38 in 10.0 mi Calm Calm - N/A   Clear
1:15 AM 38.1 °F - 27.9 °F 67% 30.38 in 10.0 mi Calm Calm - N/A   Clear
1:35 AM 37.2 °F 34.7 °F 29.8 °F 75% 30.39 in 10.0 mi NW 3.5 mph - N/A   Clear
1:55 AM 34.0 °F 31.0 °F 31.5 °F 90% 30.39 in 10.0 mi NNW 3.5 mph - N/A   Clear
2:15 AM 35.2 °F 32.4 °F 29.3 °F 79% 30.38 in 10.0 mi North 3.5 mph - N/A   Clear
2:35 AM 35.4 °F - 28.2 °F 75% 30.36 in 10.0 mi Calm Calm - N/A   Clear
2:55 AM 36.0 °F - 27.0 °F 70% 30.35 in 10.0 mi Calm Calm - N/A   Clear
3:15 AM 36.1 °F 32.3 °F 27.0 °F 69% 30.37 in 10.0 mi NNW 4.6 mph - N/A   Clear
3:35 AM 34.5 °F - 28.8 °F 79% 30.38 in 10.0 mi Calm Calm - N/A   Clear
3:55 AM 33.4 °F 29.1 °F 28.4 °F 82% 30.38 in 10.0 mi North 4.6 mph - N/A   Clear
4:15 AM 33.6 °F 30.6 °F 27.7 °F 79% 30.37 in 10.0 mi North 3.5 mph - N/A   Clear
4:35 AM 34.0 °F 31.0 °F 27.1 °F 76% 30.36 in 10.0 mi North 3.5 mph - N/A   Clear
4:55 AM 34.2 °F 30.0 °F 25.7 °F 71% 30.36 in 10.0 mi North 4.6 mph - N/A   Clear
5:15 AM 34.0 °F 31.0 °F 26.2 °F 73% 30.36 in 10.0 mi North 3.5 mph - N/A   Clear
5:35 AM 32.4 °F 29.1 °F 27.3 °F 82% 30.36 in 10.0 mi North 3.5 mph - N/A   Clear
5:55 AM 32.9 °F 29.8 °F 27.3 °F 80% 30.37 in 10.0 mi North 3.5 mph - N/A   Clear
6:15 AM 33.1 °F - 26.2 °F 76% 30.38 in 10.0 mi Calm Calm - N/A   Clear
6:35 AM 33.4 °F - 25.9 °F 74% 30.38 in 10.0 mi Calm Calm - N/A   Clear
6:55 AM 32.7 °F - 26.6 °F 78% 30.38 in 10.0 mi Calm Calm - N/A   Clear
7:15 AM 32.9 °F - 26.4 °F 77% 30.38 in 10.0 mi Calm Calm - N/A   Clear
7:35 AM 32.9 °F 28.5 °F 27.3 °F 80% 30.37 in 10.0 mi NE 4.6 mph - N/A   Clear
7:55 AM 34.5 °F 31.6 °F 27.9 °F 77% 30.37 in 10.0 mi NE 3.5 mph - N/A   Clear
8:15 AM 36.0 °F 32.1 °F 28.6 °F 75% 30.38 in 10.0 mi ENE 4.6 mph - N/A   Clear
8:35 AM 38.1 °F 34.6 °F 29.5 °F 71% 30.39 in 10.0 mi ENE 4.6 mph - N/A   Clear
8:55 AM 40.6 °F - 30.7 °F 68% 30.40 in 10.0 mi Calm Calm - N/A   Clear
9:15 AM 42.6 °F - 31.6 °F 65% 30.39 in 10.0 mi Calm Calm - N/A   Clear
9:35 AM 44.6 °F 43.1 °F 32.2 °F 62% 30.39 in 10.0 mi East 3.5 mph - N/A   Clear
9:55 AM 48.0 °F - 34.0 °F 58% 30.40 in 10.0 mi Calm Calm - N/A   Clear
10:15 AM 49.1 °F - 33.8 °F 56% 30.40 in 10.0 mi East 3.5 mph - N/A   Clear
10:35 AM 51.8 °F - 35.1 °F 53% 30.39 in 10.0 mi East 3.5 mph - N/A   Clear
10:55 AM 53.6 °F - 34.7 °F 49% 30.38 in 10.0 mi ESE 6.9 mph - N/A   Clear
11:15 AM 55.6 °F - 34.5 °F 45% 30.36 in 10.0 mi East 5.8 mph - N/A   Clear
11:35 AM 56.5 °F - 35.2 °F 45% 30.35 in 10.0 mi ESE 4.6 mph - N/A   Clear
11:55 AM 58.5 °F - 36.7 °F 44% 30.34 in 10.0 mi ESE 5.8 mph - N/A   Clear
12:15 PM 58.8 °F - 37.2 °F 45% 30.32 in 10.0 mi ESE 5.8 mph - N/A   Clear
12:35 PM 60.3 °F - 39.4 °F 46% 30.32 in 10.0 mi SSE 3.5 mph - N/A   Clear
12:55 PM 60.6 °F - 40.1 °F 47% 30.31 in 10.0 mi ESE 4.6 mph - N/A   Clear
1:15 PM 61.5 °F - 41.5 °F 48% 30.31 in 10.0 mi Calm Calm - N/A   Clear
1:35 PM 62.8 °F - 41.9 °F 46% 30.28 in 10.0 mi ESE 3.5 mph - N/A   Clear
1:55 PM 63.0 °F - 42.1 °F 46% 30.27 in 10.0 mi Calm Calm - N/A   Clear
2:15 PM 63.0 °F - 42.4 °F 47% 30.26 in 10.0 mi South 3.5 mph - N/A   Clear
2:35 PM 63.7 °F - 43.2 °F 47% 30.26 in 10.0 mi Calm Calm - N/A   Clear
2:55 PM 63.0 °F - 43.7 °F 49% 30.26 in 10.0 mi Calm Calm - N/A   Clear
3:15 PM 64.0 °F - 44.6 °F 49% 30.25 in 10.0 mi ESE 4.6 mph - N/A   Clear
3:35 PM 64.6 °F - 44.8 °F 49% 30.25 in 10.0 mi Calm Calm - N/A   Clear
3:55 PM 64.2 °F - 45.3 °F 50% 30.25 in 10.0 mi South 5.8 mph - N/A   Clear
4:15 PM 63.7 °F - 45.9 °F 52% 30.24 in 10.0 mi South 3.5 mph - N/A   Clear
4:35 PM 63.9 °F - 45.9 °F 52% 30.24 in 10.0 mi South 4.6 mph - N/A   Clear
4:55 PM 62.4 °F - 46.2 °F 55% 30.23 in 10.0 mi SE 3.5 mph - N/A   Clear
5:15 PM 60.6 °F - 46.2 °F 59% 30.22 in 10.0 mi ESE 3.5 mph - N/A   Clear
5:35 PM 58.1 °F - 46.4 °F 65% 30.23 in 10.0 mi Calm Calm - N/A   Clear
5:55 PM 54.9 °F - 46.9 °F 75% 30.23 in 10.0 mi Calm Calm - N/A   Clear
6:15 PM 50.5 °F - 46.4 °F 86% 30.22 in 10.0 mi ESE 3.5 mph - N/A   Clear
6:35 PM 51.3 °F - 47.5 °F 87% 30.22 in 10.0 mi Calm Calm - N/A   Clear
6:55 PM 52.5 °F - 47.3 °F 82% 30.22 in 10.0 mi Calm Calm - N/A   Clear
7:15 PM 50.4 °F - 46.8 °F 87% 30.22 in 10.0 mi Calm Calm - N/A   Clear
7:35 PM 50.2 °F - 47.1 °F 89% 30.23 in 10.0 mi Calm Calm - N/A   Clear
7:55 PM 49.6 °F - 47.1 °F 91% 30.24 in 10.0 mi Calm Calm - N/A   Clear
8:15 PM 49.1 °F - 47.3 °F 93% 30.24 in 10.0 mi Calm Calm - N/A   Clear
8:35 PM 50.5 °F - 48.0 °F 91% 30.25 in 10.0 mi Calm Calm - N/A   Clear
8:55 PM 49.3 °F - 46.9 °F 92% 30.25 in 10.0 mi Calm Calm - N/A   Clear
9:15 PM 49.1 °F - 46.9 °F 92% 30.24 in 10.0 mi ENE 3.5 mph - N/A   Clear
9:35 PM 50.4 °F - 48.2 °F 92% 30.22 in 10.0 mi East 4.6 mph - N/A   Clear
9:55 PM 52.9 °F - 49.1 °F 87% 30.22 in 10.0 mi East 4.6 mph - N/A   Clear
10:15 PM 53.6 °F - 49.3 °F 85% 30.21 in 10.0 mi East 4.6 mph - N/A   Clear
10:35 PM 54.0 °F - 49.6 °F 85% 30.20 in 10.0 mi ESE 5.8 mph - N/A   Clear
10:55 PM 54.5 °F - 50.0 °F 85% 30.21 in 10.0 mi ESE 4.6 mph - N/A   Clear
11:15 PM 54.3 °F - 50.0 °F 85% 30.21 in 10.0 mi ESE 3.5 mph - N/A   Clear
11:35 PM 53.6 °F - 50.0 °F 88% 30.19 in 10.0 mi ESE 4.6 mph - N/A   Clear
11:55 PM 52.5 °F - 49.5 °F 89% 30.19 in 10.0 mi East 3.5 mph - N/A   Clear